STARLINK-36160 (66936 NORAD) Tracking and Keplerian Element Data

This shows tracking and keplerian element data for the satellite.

Feedback or suggestion? Click here.




ElementValue
Catalog66936
NameSTARLINK-36160
Epoch Orbit319
Epoch Day354.25003472
Epoch Year2025
RAAN12.6838
Inclination53.1559
Eccentricity9.52E-05
Argument of Perigee69.8107
Mean Anonmoly183.7276
Mean Motion15.77599573
Decay Rate-0.01465391
L11 66936U 25286M 25354.25003472 -.01465391 00000+0 -97493-2 0 9999
L22 66936 53.1559 12.6838 0000952 69.8107 183.7276 15.77599573 3190



Live tracking and technical data element details for STARLINK-36160 (NORAD 66936). STARLINK-36160 can be tracked NOW for your location showing map with azimuth and elevation plus other details from your city location.







IsCatalogInMostPopularTable: catalog: 66936, numindb: 13
Update: records affected: 1



GetName: 66936 STARLINK-36160

Hit Count: updated at: Tue, 17 Feb 2026 11:16:17 GMT